Hourly Weather Bolshie Selyutichi

Today, 17 June, Thursday

Time Temperature Precipitation Wind Pressure Humidity
00:00 +15°C° 0 mm 2 mps 752 mmHg 85%
01:00 +15°C° 0 mm 2 mps 752 mmHg 86%
02:00 +14°C° 0 mm 2 mps 752 mmHg 87%
03:00 +14°C° 0 mm 2 mps 752 mmHg 87%
04:00 +14°C° 0 mm 2 mps 753 mmHg 86%
05:00 +14°C° 0 mm 2 mps 753 mmHg 86%
06:00 +16°C° 0 mm 2 mps 753 mmHg 78%
07:00 +18°C° 0 mm 3 mps 753 mmHg 71%
08:00 +21°C° 0 mm 3 mps 754 mmHg 63%
09:00 +22°C° 0 mm 3 mps 754 mmHg 59%
10:00 +25°C° 0 mm 3 mps 754 mmHg 56%
11:00 +26°C° 0 mm 3 mps 754 mmHg 53%
12:00 +26°C° 0 mm 3 mps 754 mmHg 52%
13:00 +26°C° 0 mm 3 mps 754 mmHg 51%
14:00 +27°C° 0 mm 3 mps 754 mmHg 51%
15:00 +26°C° 0 mm 3 mps 754 mmHg 51%
16:00 +26°C° 0 mm 3 mps 754 mmHg 52%
17:00 +26°C° 0 mm 3 mps 754 mmHg 52%
18:00 +24°C° 0 mm 3 mps 754 mmHg 60%
19:00 +21°C° 0 mm 3 mps 754 mmHg 68%
20:00 +19°C° 0 mm 2 mps 755 mmHg 75%
21:00 +18°C° 0 mm 2 mps 755 mmHg 78%
22:00 +17°C° 0 mm 2 mps 755 mmHg 80%
23:00 +16°C° 0 mm 2 mps 755 mmHg 83%

Tomorrow, 18 June, Friday

Time Temperature Precipitation Wind Pressure Humidity
00:00 +16°C° 0 mm 2 mps 755 mmHg 85%
01:00 +15°C° 0 mm 2 mps 755 mmHg 88%
02:00 +14°C° 0 mm 2 mps 755 mmHg 91%
03:00 +15°C° 0 mm 2 mps 755 mmHg 90%
04:00 +15°C° 0 mm 2 mps 755 mmHg 89%
05:00 +15°C° 0 mm 2 mps 756 mmHg 89%
06:00 +17°C° 0 mm 2 mps 756 mmHg 80%
07:00 +19°C° 0 mm 3 mps 756 mmHg 72%
08:00 +21°C° 0 mm 4 mps 756 mmHg 64%
09:00 +22°C° 0 mm 4 mps 756 mmHg 58%
10:00 +25°C° 0 mm 4 mps 755 mmHg 53%
11:00 +26°C° 0 mm 4 mps 755 mmHg 48%
12:00 +27°C° 0 mm 4 mps 755 mmHg 47%
13:00 +27°C° 0 mm 4 mps 755 mmHg 47%
14:00 +28°C° 0 mm 4 mps 755 mmHg 47%
15:00 +28°C° 0 mm 4 mps 754 mmHg 49%
16:00 +28°C° 0 mm 4 mps 754 mmHg 51%
17:00 +27°C° 0 mm 4 mps 754 mmHg 53%
18:00 +25°C° 0 mm 3 mps 754 mmHg 61%
19:00 +22°C° 0 mm 3 mps 754 mmHg 69%
20:00 +20°C° 0 mm 2 mps 754 mmHg 77%
21:00 +19°C° 0 mm 2 mps 755 mmHg 82%
22:00 +18°C° 0 mm 2 mps 755 mmHg 87%
23:00 +17°C° 0 mm 2 mps 755 mmHg 92%

Day after tomorrow, 19 June, Saturday

Time Temperature Precipitation Wind Pressure Humidity
00:00 +17°C° 0 mm 2 mps 755 mmHg 93%
01:00 +17°C° 0 mm 2 mps 755 mmHg 94%
02:00 +17°C° 0 mm 2 mps 755 mmHg 96%
03:00 +17°C° 0 mm 2 mps 755 mmHg 95%
04:00 +17°C° 0 mm 2 mps 755 mmHg 95%
05:00 +17°C° 0 mm 2 mps 755 mmHg 95%
06:00 +19°C° 0 mm 2 mps 755 mmHg 87%
07:00 +20°C° 0 mm 3 mps 755 mmHg 79%
08:00 +22°C° 0 mm 3 mps 755 mmHg 71%
09:00 +25°C° 0 mm 3 mps 755 mmHg 64%
10:00 +26°C° 0 mm 3 mps 754 mmHg 58%
11:00 +27°C° 0 mm 4 mps 754 mmHg 52%
12:00 +27°C° 0 mm 4 mps 754 mmHg 49%
13:00 +28°C° 0 mm 4 mps 754 mmHg 47%
14:00 +29°C° 0 mm 4 mps 753 mmHg 44%
15:00 +28°C° 0 mm 4 mps 753 mmHg 47%
16:00 +28°C° 0 mm 3 mps 753 mmHg 50%
17:00 +28°C° 0 mm 3 mps 753 mmHg 53%
18:00 +26°C° 0 mm 3 mps 753 mmHg 61%
19:00 +24°C° 0 mm 3 mps 753 mmHg 70%
20:00 +23°C° 0 mm 2 mps 753 mmHg 79%
21:00 +21°C° 0 mm 2 mps 753 mmHg 83%
22:00 +20°C° 0 mm 2 mps 753 mmHg 87%
23:00 +19°C° 0 mm 2 mps 753 mmHg 90%

20 June, Sunday

Time Temperature Precipitation Wind Pressure Humidity
00:00 +19°C° 0 mm 2 mps 753 mmHg 89%
01:00 +20°C° 0 mm 2 mps 753 mmHg 88%
02:00 +20°C° 0 mm 2 mps 753 mmHg 86%
03:00 +20°C° 0 mm 2 mps 753 mmHg 87%
04:00 +20°C° 0 mm 2 mps 753 mmHg 87%
05:00 +20°C° 0 mm 2 mps 752 mmHg 88%
06:00 +20°C° 0 mm 2 mps 752 mmHg 87%
07:00 +21°C° 0 mm 2 mps 752 mmHg 86%
08:00 +21°C° 0 mm 2 mps 753 mmHg 85%
09:00 +24°C° 0.4 mm 3 mps 752 mmHg 80%
10:00 +25°C° 0.4 mm 3 mps 752 mmHg 75%
11:00 +27°C° 0.4 mm 4 mps 752 mmHg 70%
12:00 +28°C° 0.3 mm 3 mps 752 mmHg 63%
13:00 +29°C° 0.3 mm 3 mps 751 mmHg 56%
14:00 +30°C° 0.3 mm 3 mps 751 mmHg 49%
15:00 +30°C° 0 mm 3 mps 751 mmHg 51%
16:00 +29°C° 0 mm 4 mps 751 mmHg 54%
17:00 +29°C° 0 mm 4 mps 750 mmHg 56%
18:00 +27°C° 0 mm 3 mps 750 mmHg 63%
19:00 +25°C° 0 mm 3 mps 750 mmHg 70%
20:00 +24°C° 0 mm 2 mps 750 mmHg 78%
21:00 +23°C° 0 mm 2 mps 751 mmHg 82%
22:00 +20°C° 0 mm 2 mps 751 mmHg 86%
23:00 +19°C° 0 mm 2 mps 751 mmHg 90%

21 June, Monday

Time Temperature Precipitation Wind Pressure Humidity
00:00 +19°C° 0 mm 2 mps 751 mmHg 92%
01:00 +18°C° 0 mm 2 mps 750 mmHg 94%
02:00 +18°C° 0 mm 2 mps 750 mmHg 96%
03:00 +18°C° 0 mm 2 mps 750 mmHg 95%
04:00 +18°C° 0 mm 2 mps 750 mmHg 95%
05:00 +18°C° 0 mm 2 mps 750 mmHg 95%
06:00 +20°C° 0 mm 2 mps 750 mmHg 87%
07:00 +21°C° 0 mm 3 mps 750 mmHg 79%
08:00 +24°C° 0 mm 3 mps 750 mmHg 70%
09:00 +26°C° 0 mm 4 mps 750 mmHg 64%
10:00 +27°C° 0 mm 4 mps 750 mmHg 58%
11:00 +29°C° 0 mm 5 mps 749 mmHg 51%
12:00 +29°C° 0 mm 5 mps 749 mmHg 50%
13:00 +30°C° 0 mm 5 mps 749 mmHg 48%
14:00 +32°C° 0 mm 5 mps 749 mmHg 46%
15:00 +32°C° 0 mm 5 mps 749 mmHg 49%
16:00 +30°C° 0 mm 4 mps 748 mmHg 52%
17:00 +30°C° 0 mm 4 mps 748 mmHg 55%
18:00 +29°C° 0 mm 4 mps 748 mmHg 60%
19:00 +27°C° 0 mm 4 mps 748 mmHg 66%
20:00 +25°C° 0 mm 3 mps 748 mmHg 71%
21:00 +24°C° 0 mm 3 mps 748 mmHg 77%
22:00 +22°C° 0 mm 3 mps 748 mmHg 82%
23:00 +21°C° 0 mm 3 mps 748 mmHg 88%

22 June, Tuesday

Time Temperature Precipitation Wind Pressure Humidity
00:00 +21°C° 0 mm 3 mps 748 mmHg 90%
01:00 +21°C° 0 mm 3 mps 748 mmHg 93%
02:00 +20°C° 0 mm 2 mps 748 mmHg 96%
03:00 +20°C° 0 mm 2 mps 748 mmHg 95%
04:00 +20°C° 0 mm 2 mps 748 mmHg 94%
05:00 +20°C° 0 mm 2 mps 748 mmHg 93%
06:00 +22°C° 0 mm 3 mps 749 mmHg 85%
07:00 +24°C° 0 mm 3 mps 749 mmHg 76%
08:00 +26°C° 0 mm 4 mps 749 mmHg 67%
09:00 +28°C° 0 mm 4 mps 749 mmHg 60%
10:00 +29°C° 0 mm 5 mps 749 mmHg 53%
11:00 +32°C° 0 mm 5 mps 749 mmHg 45%
12:00 +33°C° 0 mm 5 mps 748 mmHg 43%
13:00 +33°C° 0 mm 5 mps 748 mmHg 41%
14:00 +34°C° 0 mm 5 mps 748 mmHg 40%
15:00 +33°C° 0 mm 5 mps 748 mmHg 43%
16:00 +33°C° 0 mm 5 mps 748 mmHg 46%
17:00 +32°C° 0 mm 5 mps 748 mmHg 49%
18:00 +29°C° 0 mm 5 mps 749 mmHg 55%
19:00 +27°C° 0 mm 5 mps 749 mmHg 61%
20:00 +26°C° 0 mm 4 mps 749 mmHg 68%
21:00 +25°C° 0 mm 4 mps 749 mmHg 74%
22:00 +24°C° 0 mm 3 mps 749 mmHg 79%
23:00 +22°C° 0 mm 3 mps 749 mmHg 85%
Show more